FW9678 Weather Reports


time (UTC)temp
F
wind
direction
speed
knots
gust
knots
rain 1hr
in
rain 24hr
in
rain mn
in
humidity
%
barometer
mb
20260507202607 80 66 3.5 9.6 0.00 0.00 0.00 66 1019.8
20260507202104 80 56 2.6 7.8 0.00 0.00 0.00 65 1019.9
20260507201559 82 63 2.6 4.3 0.00 0.00 0.00 62 1019.8
20260507201056 82 53 2.6 3.5 0.00 0.00 0.00 62 1019.9
20260507200551 82 48 1.7 5.2 0.00 0.00 0.00 61 1019.9
20260507200047 83 29 2.6 5.2 0.00 0.00 0.00 60 1020.1
20260507195545 82 27 0.9 4.3 0.00 0.00 0.00 62 1019.9
20260507195042 81 348 2.6 7.8 0.00 0.00 0.00 63 1020.1
20260507194538 81 25 1.7 5.2 0.00 0.00 0.00 64 1019.9
20260507194034 81 18 1.7 4.3 0.00 0.00 0.00 62 1020.0
20260507193532 82 23 3.5 4.3 0.00 0.00 0.00 62 1020.0
20260507193029 82 43 1.7 3.5 0.00 0.00 0.00 62 1019.9
20260507192525 82 58 2.6 3.5 0.00 0.00 0.00 61 1019.9
20260507192022 82 357 3.5 4.3 0.00 0.00 0.00 61 1020.1
20260507191517 82 348 2.6 3.5 0.00 0.00 0.00 63 1019.8
20260507191014 81 12 2.6 5.2 0.00 0.00 0.00 63 1020.0
20260507190512 81 4 3.5 3.5 0.00 0.00 0.00 63 1019.8
20260507190010 81 358 0.0 4.3 0.00 0.00 0.00 63 1020.0
20260507185508 81 21 1.7 3.5 0.00 0.00 0.00 64 1019.8
20260507185004 80 345 1.7 3.5 0.00 0.00 0.00 66 1019.7
20260507184503 80 27 1.7 4.3 0.00 0.00 0.00 65 1019.7
20260507184000 80 352 2.6 4.3 0.00 0.00 0.00 66 1019.7
20260507183456 80 34 1.7 3.5 0.00 0.00 0.00 65 1019.5
20260507182953 78 351 1.7 3.5 0.00 0.00 0.00 67 1019.8
20260507182449 78 71 0.9 2.6 0.00 0.00 0.00 67 1019.7
20260507181945 78 354 1.7 2.6 0.00 0.00 0.00 68 1019.8
20260507181442 78 34 2.6 3.5 0.00 0.00 0.00 69 1019.6
20260507180938 77 6 2.6 3.5 0.00 0.00 0.00 71 1019.5
20260507180435 75 50 1.7 3.5 0.00 0.00 0.00 73 1019.7
20260507175931 76 36 2.6 3.5 0.00 0.00 0.00 73 1019.6
20260507175428 78 14 1.7 5.2 0.00 0.00 0.00 69 1019.6
20260507174926 78 4 1.7 2.6 0.00 0.00 0.00 69 1019.7
20260507174423 76 331 2.6 2.6 0.00 0.00 0.00 73 1019.6
20260507173920 75 52 0.0 2.6 0.00 0.00 0.00 76 1019.5
20260507173417 72 319 1.7 2.6 0.00 0.00 0.00 81 1019.3
20260507172914 71 339 1.7 2.6 0.00 0.00 0.00 81 1019.6
20260507172411 72 296 2.6 4.3 0.00 0.00 0.00 79 1019.5
20260507171906 73 326 1.7 2.6 0.00 0.00 0.00 78 1019.4
20260507171403 73 312 0.0 3.5 0.00 0.00 0.00 76 1019.3
20260507170900 73 322 0.0 1.7 0.00 0.00 0.00 77 1019.2
20260507170357 73 64 1.7 2.6 0.00 0.00 0.00 76 1018.9
20260507165853 73 73 0.0 1.7 0.00 0.00 0.00 77 1019.1
20260507165349 73 33 1.7 3.5 0.00 0.00 0.00 78 1018.9
20260507164845 71 358 0.0 1.7 0.00 0.00 0.00 81 1018.8
20260507164342 70 341 0.9 1.7 0.00 0.00 0.00 83 1018.6
20260507163839 70 339 1.7 2.6 0.00 0.00 0.00 83 1018.5
20260507163337 70 345 0.9 1.7 0.00 0.00 0.00 82 1018.6
20260507162833 70 15 1.7 1.7 0.00 0.00 0.00 82 1018.5
20260507162329 70 338 1.7 2.6 0.00 0.00 0.00 82 1018.4
20260507161826 70 346 0.9 2.6 0.00 0.00 0.00 82 1018.3
20260507161322 70 18 1.7 3.5 0.00 0.00 0.00 82 1018.2
20260507160819 70 43 2.6 4.3 0.00 0.00 0.00 82 1018.2
20260507160315 70 50 1.7 4.3 0.00 0.00 0.00 82 1018.2
20260507155811 69 48 2.6 3.5 0.00 0.00 0.00 83 1017.9
20260507155307 69 42 2.6 4.3 0.00 0.00 0.00 83 1017.9
20260507154804 69 15 1.7 3.5 0.00 0.00 0.00 84 1018.1
20260507154301 69 21 2.6 2.6 0.00 0.00 0.00 83 1017.8
20260507153758 69 11 1.7 1.7 0.00 0.00 0.00 83 1017.9
20260507153254 69 19 1.7 2.6 0.00 0.00 0.00 83 1017.7
20260507152751 69 15 1.7 1.7 0.00 0.00 0.00 82 1017.7
20260507152248 69 17 1.7 2.6 0.00 0.00 0.00 82 1017.7
20260507151743 69 17 2.6 2.6 0.00 0.00 0.00 82 1017.4
20260507151240 69 20 1.7 2.6 0.00 0.00 0.00 83 1017.3
20260507150737 69 12 1.7 2.6 0.00 0.00 0.00 83 1017.3
20260507150234 69 7 1.7 1.7 0.00 0.00 0.00 83 1017.5
20260507145730 69 4 1.7 2.6 0.00 0.00 0.00 83 1017.3
20260507145226 69 359 1.7 3.5 0.00 0.00 0.00 83 1017.3
20260507144723 69 13 1.7 2.6 0.00 0.00 0.00 83 1017.1
20260507144221 69 53 2.6 2.6 0.00 0.00 0.00 84 1017.2
20260507143717 69 8 1.7 1.7 0.00 0.00 0.00 84 1017.2
20260507143215 69 9 1.7 2.6 0.00 0.00 0.00 84 1017.2
20260507142710 69 9 1.7 2.6 0.00 0.00 0.00 84 1016.9
20260507142207 68 359 1.7 2.6 0.00 0.00 0.00 85 1017.0
20260507141703 68 357 1.7 1.7 0.00 0.00 0.00 86 1017.2
20260507141200 68 349 1.7 1.7 0.00 0.00 0.00 86 1017.4
20260507140657 69 350 0.9 2.6 0.00 0.00 0.00 86 1017.2
20260507140154 69 9 1.7 2.6 0.00 0.00 0.00 86 1017.3
20260507135651 68 348 1.7 2.6 0.00 0.00 0.00 87 1017.3
20260507135149 68 352 1.7 2.6 0.00 0.00 0.00 87 1017.5
20260507134645 68 351 1.7 2.6 0.00 0.00 0.00 88 1017.4
20260507134141 68 356 1.7 1.7 0.00 0.00 0.00 88 1017.7
20260507133637 68 359 0.9 1.7 0.00 0.00 0.00 89 1017.4
20260507133135 68 356 1.7 1.7 0.00 0.00 0.00 89 1017.5
20260507132632 68 358 1.7 2.6 0.00 0.00 0.00 88 1017.5
20260507132127 68 335 1.7 1.7 0.00 0.00 0.00 89 1017.8
20260507131624 68 351 1.7 1.7 0.00 0.00 0.00 88 1017.5
20260507131122 68 346 1.7 1.7 0.00 0.00 0.00 88 1017.5
20260507130619 68 349 1.7 1.7 0.00 0.00 0.00 88 1017.9
20260507130117 69 351 1.7 2.6 0.00 0.00 0.00 88 1017.7
20260507125615 69 358 1.7 1.7 0.00 0.00 0.00 87 1018.0
20260507125112 69 337 1.7 2.6 0.00 0.00 0.00 86 1017.8
20260507124608 69 346 1.7 1.7 0.00 0.00 0.00 86 1017.9
20260507124107 69 349 1.7 2.6 0.00 0.00 0.00 86 1017.9
20260507123604 69 346 1.7 1.7 0.00 0.00 0.00 86 1017.8
20260507123101 69 339 1.7 1.7 0.00 0.00 0.00 86 1017.9
20260507122556 69 321 1.7 2.6 0.00 0.00 0.00 86 1018.0
20260507122052 69 350 1.7 3.5 0.00 0.00 0.00 86 1018.1
20260507121548 69 6 0.9 2.6 0.00 0.00 0.00 86 1018.0
20260507121044 69 352 1.7 1.7 0.00 0.00 0.00 86 1018.3
20260507120540 69 3 1.7 1.7 0.00 0.00 0.00 86 1018.0
20260507120038 69 335 1.7 1.7 0.00 0.00 0.00 86 1018.2
20260507115534 69 322 1.7 1.7 0.00 0.00 0.00 86 1018.2
20260507115030 69 343 2.6 2.6 0.00 0.00 0.00 86 1018.2
20260507114526 69 359 1.7 2.6 0.00 0.00 0.00 85 1018.4
20260507114023 69 356 2.6 3.5 0.00 0.00 0.00 86 1018.5
20260507113520 69 346 0.9 3.5 0.00 0.00 0.00 86 1018.3
20260507113017 69 355 1.7 2.6 0.00 0.00 0.00 86 1018.4
20260507112515 69 2 1.7 2.6 0.00 0.00 0.00 86 1018.4
20260507112011 68 354 1.7 2.6 0.00 0.00 0.00 86 1018.5
20260507111510 68 346 1.7 1.7 0.00 0.00 0.00 86 1018.5
20260507111005 69 355 1.7 1.7 0.00 0.00 0.00 85 1018.7
20260507110502 69 356 1.7 2.6 0.00 0.00 0.00 85 1018.7
20260507105958 69 3 2.6 2.6 0.00 0.00 0.00 85 1018.5
20260507105455 69 335 1.7 1.7 0.00 0.00 0.00 85 1018.6
20260507104951 69 343 1.7 2.6 0.00 0.00 0.00 84 1018.6
20260507104449 69 352 2.6 3.5 0.00 0.00 0.00 84 1018.6
20260507103944 69 345 1.7 2.6 0.00 0.00 0.00 84 1018.8
20260507103441 69 340 1.7 1.7 0.00 0.00 0.00 83 1018.8
20260507102937 69 5 1.7 1.7 0.00 0.00 0.00 83 1018.6
20260507102434 70 350 1.7 2.6 0.00 0.00 0.00 83 1018.8
20260507101931 70 357 1.7 1.7 0.00 0.00 0.00 82 1018.9
20260507101426 70 0 1.7 1.7 0.00 0.00 0.00 82 1018.8
20260507100922 70 350 1.7 2.6 0.00 0.00 0.00 82 1018.9
20260507100420 70 349 1.7 2.6 0.00 0.00 0.00 82 1019.1
20260507095918 70 349 1.7 1.7 0.00 0.02 0.02 81 1019.2
20260507095415 70 350 1.7 2.6 0.00 0.02 0.02 81 1019.1
20260507094912 70 328 0.9 1.7 0.00 0.02 0.02 81 1019.0
20260507094408 70 27 1.7 2.6 0.00 0.02 0.02 81 1019.2
20260507093905 70 16 1.7 2.6 0.00 0.02 0.02 81 1019.2
20260507093404 70 0 1.7 1.7 0.00 0.02 0.02 81 1019.1
20260507092902 70 12 1.7 1.7 0.00 0.02 0.02 80 1019.1
20260507092357 70 359 1.7 1.7 0.00 0.02 0.02 80 1019.2
20260507091854 71 347 1.7 2.6 0.00 0.02 0.02 80 1019.2
20260507091350 71 316 1.7 2.6 0.00 0.02 0.02 80 1019.4
20260507090846 71 356 1.7 2.6 0.00 0.02 0.02 79 1019.5
20260507090343 71 357 1.7 2.6 0.00 0.02 0.02 79 1019.5
20260507085840 71 349 2.6 2.6 0.00 0.02 0.02 79 1019.4
20260507085336 71 336 2.6 2.6 0.00 0.02 0.02 79 1019.5
20260507084834 71 336 1.7 3.5 0.00 0.02 0.02 79 1019.3
20260507084330 71 350 1.7 1.7 0.00 0.02 0.02 78 1019.4
20260507083828 71 354 2.6 3.5 0.00 0.02 0.02 78 1019.4
20260507083324 71 336 0.9 3.5 0.00 0.02 0.02 77 1019.3
20260507082820 71 7 1.7 1.7 0.00 0.02 0.02 77 1019.4
20260507082316 71 12 1.7 2.6 0.00 0.02 0.02 77 1019.3
20260507081814 72 4 1.7 2.6 0.00 0.02 0.02 76 1019.2
20260507081309 72 7 1.7 1.7 0.00 0.02 0.02 75 1019.2
20260507080806 72 25 1.7 2.6 0.00 0.02 0.02 75 1019.3
20260507080302 72 32 2.6 2.6 0.00 0.02 0.02 75 1019.4
20260507075757 72 26 1.7 2.6 0.00 0.02 0.02 75 1019.1
20260507075254 72 18 1.7 2.6 0.00 0.02 0.02 76 1019.3
20260507074750 72 28 2.6 2.6 0.00 0.02 0.02 76 1019.0
20260507074249 72 11 1.7 2.6 0.00 0.02 0.02 76 1019.2
20260507073745 71 350 2.6 3.5 0.00 0.02 0.02 77 1019.2
20260507073241 71 13 1.7 3.5 0.00 0.02 0.02 77 1019.0
20260507072739 71 11 3.5 3.5 0.00 0.02 0.02 77 1019.2
20260507072237 71 0 2.6 4.3 0.00 0.02 0.02 78 1019.2
20260507071734 71 11 1.7 2.6 0.00 0.02 0.02 79 1019.0
20260507071230 71 347 2.6 2.6 0.00 0.02 0.02 79 1018.8
20260507070727 71 358 1.7 2.6 0.00 0.02 0.02 79 1019.0
20260507070224 71 19 1.7 4.3 0.00 0.02 0.02 80 1019.0
20260507065721 71 34 2.6 3.5 0.00 0.02 0.02 80 1019.0
20260507065218 71 356 0.9 3.5 0.00 0.02 0.02 80 1018.6
20260507064715 71 22 1.7 2.6 0.00 0.02 0.02 80 1018.6
20260507064214 71 7 2.6 3.5 0.00 0.02 0.02 80 1018.6
20260507063711 72 15 1.7 2.6 0.00 0.02 0.02 80 1018.5
20260507063207 72 11 2.6 3.5 0.00 0.02 0.02 80 1018.5
20260507062704 72 19 2.6 2.6 0.00 0.02 0.02 80 1018.5
20260507062202 72 26 2.6 3.5 0.00 0.02 0.02 80 1018.5
20260507061700 72 30 2.6 3.5 0.00 0.02 0.02 80 1018.2
20260507061157 72 23 3.5 4.3 0.00 0.02 0.02 80 1018.4
20260507060655 72 338 1.7 3.5 0.00 0.02 0.02 80 1018.1
20260507060151 72 29 1.7 4.3 0.00 0.02 0.02 80 1018.1
20260507055647 72 26 3.5 3.5 0.00 0.02 0.02 80 1018.0
20260507055143 72 39 3.5 4.3 0.00 0.02 0.02 80 1018.1
20260507054639 72 23 3.5 4.3 0.00 0.02 0.02 79 1018.1
20260507054136 72 24 2.6 3.5 0.00 0.02 0.02 80 1017.8
20260507053634 72 9 2.6 3.5 0.00 0.02 0.02 79 1017.9
20260507053132 72 350 2.6 3.5 0.00 0.02 0.02 79 1017.9
20260507052630 72 29 3.5 4.3 0.00 0.02 0.02 79 1017.9
20260507052126 72 31 1.7 3.5 0.00 0.02 0.02 79 1017.7
20260507051624 72 11 1.7 2.6 0.00 0.02 0.02 79 1017.7
20260507051121 72 21 1.7 2.6 0.00 0.02 0.02 79 1017.7
20260507050618 72 40 1.7 3.5 0.00 0.02 0.02 78 1017.5
20260507050114 73 9 1.7 2.6 0.00 0.02 0.02 78 1017.3
20260507045611 73 357 1.7 3.5 0.00 0.02 0.02 78 1017.5
20260507045108 73 52 3.5 3.5 0.00 0.02 0.02 79 1017.3
20260507044604 73 0 1.7 2.6 0.00 0.02 0.02 79 1017.2
20260507044102 73 317 1.7 3.5 0.00 0.02 0.02 79 1017.2
20260507043557 73 45 2.6 3.5 0.00 0.02 0.02 78 1017.3
20260507043055 73 3 2.6 3.5 0.00 0.02 0.02 79 1017.2
20260507042550 73 12 1.7 2.6 0.00 0.02 0.02 79 1016.9
20260507042046 73 13 1.7 3.5 0.00 0.02 0.02 79 1017.0
20260507041543 73 352 1.7 2.6 0.00 0.02 0.02 79 1017.0
20260507041040 73 20 1.7 3.5 0.00 0.02 0.02 79 1017.0
20260507040537 73 19 1.7 2.6 0.00 0.02 0.02 78 1017.0
20260507040033 73 26 1.7 3.5 0.00 0.02 0.02 78 1016.8
20260507035529 73 354 2.6 3.5 0.00 0.02 0.02 79 1016.8
20260507035026 73 32 1.7 2.6 0.00 0.02 0.02 79 1016.8
20260507034522 73 1 1.7 3.5 0.00 0.02 0.02 79 1016.8
20260507034020 74 1 1.7 2.6 0.00 0.02 0.02 79 1016.8
20260507033518 74 24 1.7 2.6 0.00 0.02 0.02 78 1016.6
20260507033015 74 2 2.6 2.6 0.00 0.02 0.02 79 1016.4
20260507032512 74 31 2.6 3.5 0.00 0.02 0.02 78 1016.4
20260507032008 74 19 2.6 3.5 0.00 0.02 0.02 78 1016.6
20260507031504 74 341 1.7 3.5 0.00 0.02 0.02 78 1016.6
20260507031002 74 27 2.6 2.6 0.00 0.02 0.02 79 1016.4
20260507030458 74 342 1.7 3.5 0.00 0.02 0.02 78 1016.5
20260507025955 74 345 1.7 4.3 0.00 0.02 0.02 78 1016.3
20260507025453 74 39 1.7 2.6 0.00 0.02 0.02 78 1016.4
20260507024951 74 15 2.6 2.6 0.00 0.02 0.02 79 1016.4
20260507024448 74 24 1.7 3.5 0.00 0.02 0.02 78 1016.4
20260507023943 74 19 1.7 2.6 0.00 0.02 0.02 79 1016.3
20260507023440 74 345 1.7 2.6 0.00 0.02 0.02 79 1016.4
20260507022938 74 332 1.7 3.5 0.00 0.02 0.02 79 1016.4
20260507022435 75 358 2.6 3.5 0.00 0.02 0.02 78 1016.4
20260507021930 75 327 2.6 2.6 0.00 0.02 0.02 79 1016.3
20260507021425 75 353 1.7 2.6 0.00 0.02 0.02 79 1016.5
20260507020924 75 333 1.7 3.5 0.00 0.02 0.02 79 1016.5
20260507020420 75 352 2.6 3.5 0.00 0.02 0.02 79 1016.5
20260507015917 75 342 1.7 2.6 0.00 0.02 0.02 79 1016.4
20260507015415 75 346 1.7 2.6 0.00 0.02 0.02 81 1016.4
20260507014912 75 344 2.6 5.2 0.00 0.02 0.02 80 1016.5
20260507014408 75 21 3.5 4.3 0.00 0.02 0.02 80 1016.1
20260507013904 75 346 1.7 2.6 0.00 0.02 0.02 82 1016.3
20260507013402 75 352 2.6 3.5 0.00 0.02 0.02 82 1016.6
20260507012859 75 41 1.7 3.5 0.02 0.02 0.02 83 1016.3
20260507012355 74 28 1.7 2.6 0.02 0.02 0.02 84 1016.3
20260507011853 75 25 1.7 3.5 0.00 0.02 0.02 83 1016.4
20260507011349 75 15 1.7 2.6 0.00 0.02 0.02 84 1016.5
20260507010849 75 354 1.7 2.6 0.02 0.02 0.02 84 1016.4
20260507010345 75 5 0.9 2.6 0.07 0.02 0.02 83 1016.6
20260507005842 75 27 1.7 3.5 0.05 0.02 0.02 81 1016.4
20260507005339 76 8 1.7 2.6 0.00 0.01 0.01 79 1016.5
20260507004836 76 6 2.6 3.5 0.00 0.01 0.01 77 1016.7
20260507004333 76 39 2.6 2.6 0.00 0.01 0.01 78 1016.7
20260507003830 76 357 1.7 4.3 0.00 0.01 0.01 78 1016.6
20260507003325 76 15 2.6 3.5 0.00 0.01 0.01 78 1016.6
20260507002820 76 52 2.6 6.1 0.00 0.01 0.01 77 1016.6
20260507002317 76 355 2.6 2.6 0.00 0.01 0.01 78 1016.8
20260507001815 76 36 2.6 3.5 0.00 0.01 0.01 77 1016.7
20260507001312 76 47 2.6 4.3 0.00 0.01 0.01 77 1016.8
20260507000808 76 18 2.6 3.5 0.00 0.01 0.01 78 1017.0
20260507000306 76 59 3.5 5.2 0.00 0.01 0.01 77 1017.2
20260506235800 77 40 2.6 4.3 0.00 0.01 0.01 76 1017.0
20260506235256 77 17 2.6 4.3 0.00 0.01 0.01 77 1017.2
20260506234753 77 62 1.7 4.3 0.00 0.01 0.01 76 1017.3
20260506234250 76 343 3.5 3.5 0.00 0.01 0.01 79 1017.0
20260506233748 76 314 0.9 2.6 0.00 0.01 0.01 79 1017.2
20260506233244 76 50 2.6 3.5 0.00 0.01 0.01 81 1017.4
20260506232742 76 38 2.6 3.5 0.02 0.01 0.01 81 1017.0
20260506232241 75 354 1.7 3.5 0.02 0.01 0.01 82 1017.0
20260506231739 76 30 3.5 3.5 0.02 0.00 0.00 81 1017.1
20260506231237 76 21 1.7 4.3 0.02 0.00 0.00 81 1017.1
20260506230734 76 53 1.7 4.3 0.00 0.00 0.00 80 1017.2
20260506230231 77 31 2.6 4.3 0.00 0.00 0.00 75 1017.1
20260506225727 78 2 2.6 3.5 0.00 0.00 0.00 74 1017.1
20260506225225 77 356 2.6 4.3 0.00 0.00 0.00 72 1017.0
20260506224721 78 95 4.3 6.1 0.00 0.00 0.00 71 1017.1
20260506224218 78 42 1.7 5.2 0.00 0.00 0.00 71 1017.1
20260506223714 79 54 2.6 5.2 0.00 0.00 0.00 70 1017.0
20260506223210 80 57 4.3 5.2 0.00 0.00 0.00 68 1017.4
20260506222707 81 71 2.6 3.5 0.00 0.00 0.00 66 1017.1
20260506222202 83 35 2.6 4.3 0.00 0.00 0.00 61 1017.3
20260506221701 84 0 3.5 5.2 0.00 0.00 0.00 58 1017.2
20260506221159 85 27 1.7 2.6 0.00 0.00 0.00 58 1017.1
20260506220655 86 29 1.7 3.5 0.00 0.00 0.00 58 1017.5
20260506220150 87 51 2.6 3.5 0.00 0.00 0.00 56 1017.3
20260506215647 85 6 1.7 3.5 0.00 0.00 0.00 58 1017.2
20260506215142 84 23 3.5 5.2 0.00 0.00 0.00 59 1017.2
20260506214640 84 300 1.7 7.0 0.00 0.00 0.00 59 1017.4
20260506214137 84 14 2.6 4.3 0.00 0.00 0.00 59 1017.7
20260506213635 83 1 0.9 3.5 0.00 0.00 0.00 61 1017.7
20260506213132 82 340 2.6 3.5 0.00 0.00 0.00 62 1017.7
20260506212630 81 29 2.6 4.3 0.00 0.00 0.00 64 1017.8
20260506212124 81 79 2.6 4.3 0.00 0.00 0.00 64 1017.9
20260506211620 82 87 3.5 4.3 0.00 0.00 0.00 62 1017.9
20260506211117 82 39 3.5 3.5 0.00 0.00 0.00 62 1018.0
20260506210614 82 353 2.6 3.5 0.00 0.00 0.00 60 1017.8
20260506210110 83 14 2.6 4.3 0.00 0.00 0.00 58 1018.1
20260506205607 83 316 2.6 3.5 0.00 0.00 0.00 59 1017.9
20260506205102 83 32 2.6 3.5 0.00 0.00 0.00 59 1018.0
20260506204600 84 6 1.7 5.2 0.00 0.00 0.00 59 1018.0
20260506204057 84 277 3.5 5.2 0.00 0.00 0.00 59 1017.9
20260506203556 84 333 1.7 3.5 0.00 0.00 0.00 59 1017.9
20260506203052 83 12 1.7 3.5 0.00 0.00 0.00 61 1017.8